Location: Observatoire
(46.1952°N, 5.3391°E)
Time: 06:41:49
(UTC+01:00)

Explorer 7 - Pass Details

Date: 27 February 2026
Orbit: 430 x 542 km, 50.2° (Epoch: 5 March)

Event Time Altitude Azimuth Distance (km) Brightness Sun altitude
Rises 13:36:20 0° 261° (W) 2,396 10.3 34.7°
Reaches altitude 10° 13:38:27 10° 266° (W) 1,536 9.4 34.6°
Maximum altitude 13:41:50 54° 345° (NNW) 539 6.9 34.4°
Drops below altitude 10° 13:45:19 10° 65° (ENE) 1,576 8.9 34.3°
Sets 13:47:32 0° 70° (ENE) 2,467 9.8 34.2°
